Regional Weather Roundup
Issued by NWS

Home | Current Version | Previous Version | Graphics & Text | Print | Product List | Glossary On
Versions: 1 2 3 4 5 6 7 8 9 10 11 12 13 14 15 16 17 18 19 20 21 22 23 24 25 26 27 28 29 30 31 32 33 34 35 36 37 38 39 40 41 42 43 44 45 46
000
ASUS45 KCYS 032310
RWRWY

WYOMING REGIONAL WEATHER ROUNDUP
NATIONAL WEATHER SERVICE CHEYENNE WY
500 PM MDT MON AUG 03 2015

NOTE:  "FAIR" INDICATES FEW OR NO CLOUDS BELOW 12,000 FEET
WITH NO SIGNIFICANT WEATHER AND/OR OBSTRUCTIONS TO VISIBILITY.

WYZ001-040000-
YELLOWSTONE NATIONAL PARK

CITY           SKY/WX    TMP DP  RH WIND       PRES   REMARKS
LK YELLOWSTONE   N/A     68  41  37 VRB7      30.22F
W YELLOWSTONE  NOT AVBL

$$
WYZ002>013-054>058-071-098>099-040000-
NORTHERN WYOMING

CITY           SKY/WX    TMP DP  RH WIND       PRES   REMARKS
JACKSON        PTSUNNY   64  55  72 NE8       30.15R
CODY           FAIR      79  48  34 N10       29.96F
GREYBULL       FAIR      90  43  19 S9        29.87F
WORLAND        FAIR      91  42  18 SW14      29.91S
SHERIDAN       FAIR      90  52  27 S12       29.90F
BUFFALO        FAIR      83  51  33 SE6       30.00F
GILLETTE       FAIR      86  53  32 E7G22     29.96F
HULETT         FAIR      81  50  34 E10       29.99F
NEWCASTLE      FAIR      82  52  34 S16G26    29.97F

$$
WYZ014>020-022>026-101>103-040000-
CENTRAL WYOMING

CITY           SKY/WX    TMP DP  RH WIND       PRES   REMARKS
BIG PINEY      CLOUDY    66  51  58 NW17      30.12F
PINEDALE       MOCLDY    70  43  37 NW6       30.12F
DUBOIS         FAIR      72  34  25 SE22G30   30.13F
LANDER         RAIN      61  54  77 SW21G39   30.06R
RIVERTON       PTSUNNY   79  43  27 S9        30.02F
CASPER         FAIR      68  50  52 SE20G26   30.10S
DOUGLAS        FAIR      80  47  31 W7        30.01R

$$
WYZ021-027>030-104>119-040000-
SOUTHERN WYOMING

CITY           SKY/WX    TMP DP  RH WIND       PRES   REMARKS
EVANSTON       LGT RAIN  55  52  89 W15G22    30.21S
KEMMERER       CLOUDY    57  54  88 W9        30.17S
FORT BRIDGER   CLOUDY    57  57 100 W16G23    30.20R
ROCK SPRINGS   CLOUDY    68  51  54 SW24      30.10R THUNDER
DIXON          CLOUDY    71  54  54 W7G17     30.17R THUNDER
RAWLINS        FAIR      76  45  33 SE8       30.12F
SARATOGA       MOCLDY    73  43  33 E10       30.14F
LARAMIE        PTSUNNY   76  40  27 S12       30.17F
CHEYENNE       PTSUNNY   80  39  23 S16       30.12S
TORRINGTON     FAIR      86  57  37 E7        29.94F
PINE BLUFFS    FAIR      81  41  24 S13       30.05F

$$


USA.gov is the U.S. government's official web portal to all federal, state and local government web resources and services.